Stevensville, MD

12:28 PM EDT on June 23, 2018 (GMT -0400)
Stevensville

Weather History for KW29 - June, 2018

Change the Weather History Date:

Saturday, June 23, 2018

  Actual Average (KESN) Record (KESN)
Temperature  
Mean Temperature 70 °F -  
Max Temperature 73 °F 84 °F 95 °F (2015)
Min Temperature 68 °F 62 °F 51 °F (1972)
Cooling Degree Days 6    
Growing Degree Days 20 (Base 50)    
Moisture  
Dew Point 68 °F    
Average Humidity 96    
Maximum Humidity 100    
Minimum Humidity 88    
Precipitation  
Precipitation 0.02 in - - ()
Sea Level Pressure  
Sea Level Pressure 29.83 in    
Wind  
Wind Speed 5 mph ()    
Max Wind Speed 10 mph    
Max Gust Speed 18 mph    
Visibility 7.5 miles    
Events Rain    
Averages and records for this station are not official NWS values.
T = Trace of Precipitation, MM = Missing Value Source: Averaged Metar Reports

Daily Weather History Graph

Daily Weather History Graph

Search for Another Location

Airport or City:

Astronomy

Jun. 23, 2018 Rise Set
Actual Time 5:40 AM EDT 8:34 PM EDT
Civil Twilight 5:08 AM EDT 9:06 PM EDT
Nautical Twilight 4:27 AM EDT 9:47 PM EDT
Astronomical Twilight 3:41 AM EDT 10:34 PM EDT
Moon 4:23 PM EDT 2:53 AM EDT
Length of Visible Light 15h 58m
Length of Day
14h 54m
Waxing Gibbous, 81% of the Moon is Illuminated
Today
Waxing Gibbous
Jun 28
Full
Jul 6
Last Quarter
Jul 12
New
Jul 19
First Quarter

Hourly Weather History & Observations

Time (EDT) Temp. Dew Point Humidity Pressure Visibility Wind Dir Wind Speed Gust Speed Precip Events Conditions
12:15 AM 68.0 °F 66.2 °F 94% 29.87 in 3.5 mi East 8.1 mph - N/A Rain Light Rain
12:35 AM 68.0 °F 66.2 °F 94% 29.86 in 10.0 mi East 10.4 mph 17.3 mph N/A   Overcast
12:55 AM 68.0 °F 66.2 °F 94% 29.85 in 10.0 mi East 6.9 mph - 0.01 in   Overcast
1:15 AM 68.0 °F 66.2 °F 94% 29.85 in 10.0 mi East 6.9 mph 18.4 mph N/A   Overcast
1:35 AM 68.0 °F 66.2 °F 94% 29.85 in 10.0 mi East 6.9 mph - 0.01 in   Overcast
1:55 AM 68.0 °F 66.2 °F 94% 29.85 in 7.0 mi East 5.8 mph - 0.01 in   Overcast
2:15 AM 68.0 °F 66.2 °F 94% 29.85 in 7.0 mi ESE 4.6 mph - N/A   Overcast
2:35 AM 68.0 °F 66.2 °F 94% 29.84 in 7.0 mi East 6.9 mph - N/A Rain Light Rain
2:55 AM 68.0 °F 68.0 °F 100% 29.83 in 7.0 mi ESE 9.2 mph - N/A   Overcast
3:15 AM 68.0 °F 68.0 °F 100% 29.82 in 5.0 mi East 5.8 mph - N/A   Overcast
3:35 AM 68.0 °F 68.0 °F 100% 29.82 in 10.0 mi ESE 5.8 mph - N/A   Overcast
3:55 AM 68.0 °F 68.0 °F 100% 29.82 in 10.0 mi East 5.8 mph - N/A   Overcast
4:15 AM 68.0 °F 68.0 °F 100% 29.82 in 7.0 mi Calm Calm - N/A   Overcast
4:35 AM 68.0 °F 68.0 °F 100% 29.82 in 2.5 mi ESE 3.5 mph - N/A Rain Light Rain
4:55 AM 68.0 °F 68.0 °F 100% 29.81 in 3.0 mi SE 3.5 mph - N/A   Light Drizzle
5:15 AM 68.0 °F 68.0 °F 100% 29.81 in 4.0 mi SE 3.5 mph - N/A   Overcast
5:35 AM 68.0 °F 68.0 °F 100% 29.82 in 3.5 mi Calm Calm - N/A   Overcast
5:55 AM 68.0 °F 68.0 °F 100% 29.82 in 2.0 mi Calm Calm - N/A   Overcast
6:15 AM 68.0 °F 68.0 °F 100% 29.81 in 5.0 mi Calm Calm - N/A   Overcast
6:35 AM 68.0 °F 68.0 °F 100% 29.82 in 5.0 mi Calm Calm - N/A   Overcast
6:55 AM 68.0 °F 68.0 °F 100% 29.82 in 7.0 mi ENE 4.6 mph - N/A   Overcast
7:15 AM 68.0 °F 68.0 °F 100% 29.82 in 10.0 mi Calm Calm - N/A   Overcast
7:35 AM 69.8 °F 68.0 °F 94% 29.83 in 10.0 mi NE 3.5 mph - N/A   Overcast
7:55 AM 69.8 °F 68.0 °F 94% 29.83 in 10.0 mi ENE 3.5 mph - N/A   Overcast
8:00 AM 69.8 °F 68.0 °F 94% 29.83 in 10.0 mi NE 3.5 mph - N/A   Overcast
8:35 AM 69.8 °F 68.0 °F 94% 29.84 in 10.0 mi ENE 4.6 mph - N/A   Overcast
8:55 AM 69.8 °F 68.0 °F 94% 29.84 in 10.0 mi East 5.8 mph - N/A   Overcast
9:35 AM 71.6 °F 69.8 °F 94% 29.83 in 10.0 mi East 3.5 mph - N/A   Overcast
9:55 AM 71.6 °F 69.8 °F 94% 29.83 in 10.0 mi NE 3.5 mph - N/A   Overcast
10:15 AM 71.6 °F 69.8 °F 94% 29.84 in 10.0 mi ESE 3.5 mph - N/A   Overcast
10:35 AM 71.6 °F 69.8 °F 94% 29.84 in 7.0 mi SE 3.5 mph - N/A   Overcast
10:55 AM 71.6 °F 69.8 °F 94% 29.84 in 7.0 mi Calm Calm - N/A   Overcast
11:35 AM 73.4 °F 69.8 °F 88% 29.84 in 10.0 mi Calm Calm - N/A   Overcast
11:55 AM 73.4 °F 69.8 °F 88% 29.84 in 7.0 mi Calm Calm - N/A   Overcast